Location: Unspecified
(0.0000°N, 0.0000°E)
Time: 20:03:28
(UTC+02:00)

SJ-6B - Visible Passes

Search period start: 31 May 2016 00:00
Search period end: 10 June 2016 00:00
Orbit: 513 x 585 km, 97.8° (Epoch: 31 May)

Date Brightness Start Highest point End Pass type
(mag) Time Alt. Az. Time Alt. Az. Time Alt. Az.
31 May 3.8 20:19:29 10° SE 20:22:39 26° ENE 20:25:48 10° NNE visible
02 Jun 5.7 21:46:36 10° SW 21:48:04 12° WSW 21:49:32 10° WNW visible
03 Jun 5.6 21:41:31 10° SW 21:43:33 14° WSW 21:45:37 10° WNW visible
04 Jun 5.5 21:36:36 10° SW 21:39:03 17° WSW 21:41:31 10° WNW visible
05 Jun 5.2 21:31:45 10° SSW 21:34:32 20° WSW 21:37:19 10° NW visible
06 Jun 5.0 21:26:59 10° SSW 21:30:01 23° WSW 21:33:04 10° NW visible
07 Jun 4.7 21:22:16 10° SSW 21:25:29 27° WSW 21:28:46 10° NW visible
08 Jun 4.4 21:17:34 10° SSW 21:20:59 32° W 21:24:26 10° NW visible
09 Jun 4.1 21:12:55 10° S 21:16:28 38° WSW 21:20:03 10° NNW visible
